Regional Weather Roundup
Issued by NWS

Home | Current Version | Previous Version | Text Only | Print | Product List | Glossary Off
Versions: 1 2 3 4 5 6 7 8 9 10 11 12 13 14 15 16 17 18 19 20 21 22 23 24 25 26 27 28 29 30 31 32 33 34 35 36 37 38 39 40 41 42 43 44 45 46 47 48 49 50

000
ASUS45 KBOU 302010
RWRCO

WEATHER ROUNDUP FOR COLORADO
NATIONAL WEATHER SERVICE DENVER/BOULDER CO
200 PM MDT TUE JUN 30 2015

NOTE: "FAIR" INDICATES FEW OR NO CLOUDS BELOW 12000 FEET WITH NO
SIGNIFICANT WEATHER AND/OR OBSTRUCTIONS TO VISIBILITY.

COZ001>005-013-030-031-302100-
...NORTHWEST COLORADO...

CITY           SKY/WX    TMP DP  RH WIND       PRES   REMARKS
CRAIG          MOSUNNY   94  42  16 VRB6      30.18F
HAYDEN         MOSUNNY   88  43  20 SW8       30.22F
MEEKER         MOSUNNY   91  41  17 VRB5      30.20F
MOUNT WERNER   NOT AVBL
STEAMBOAT SPGS MOSUNNY   86  40  19 SW3       30.24F
WALDEN         PTSUNNY   77  36  22 N12       30.33F
$$

COZ006>008-011-302100-
...WEST CENTRAL VALLEYS...

CITY           SKY/WX    TMP DP  RH WIND       PRES   REMARKS
GRAND JUNCTION SUNNY     96  42  15 W5        30.05F
MONTROSE       SUNNY     93  44  18 VRB6      30.15F
EAGLE          MOSUNNY   90  39  17 CALM      30.21F
RIFLE          MOSUNNY   95  40  14 NW6       30.11F
DELTA          SUNNY    100  37  11 S9        30.10F
NUCLA          SUNNY     93  37  14 CALM      30.20F
$$

COZ017>023-064>068-302100-
...SOUTHWEST COLORADO...

CITY           SKY/WX    TMP DP  RH WIND       PRES   REMARKS
DURANGO        SUNNY     86  48  26 W8        30.24F
CORTEZ         SUNNY     92  45  19 SW6       30.17F
PAGOSA SPRINGS SUNNY     83  42  24 SW8       30.32F
TELLURIDE      SUNNY     81  33  18 W6        30.46F
WOLF CREEK PAS NOT AVBL
$$

COZ009-010-012-014-032>034-037-058>063-302100-
...CENTRAL COLORADO...

CITY           SKY/WX    TMP DP  RH WIND       PRES   REMARKS
ASPEN          SUNNY     86  41  20 NW10G18   30.31F
BUENA VISTA    SUNNY     85  35  17 SE3       30.30F
COPPER MTN     PTSUNNY   68  32  26 W24       30.70F
BERTHOUD PASS  FAIR      55  45  67 MISG      30.75F
COTTONWOOD PAS NOT AVBL
GUNNISON       SUNNY     82  43  24 SW5       30.33F
KREMMLING      MOSUNNY   82  34  17 W3        30.30F
LEADVILLE      SUNNY     76  34  21 N14G24    30.49F
MONARCH PASS   PTSUNNY   64  41  42 CALM      30.80S
SALIDA         SUNNY     86  35  16 CALM      30.34F
SUNLIGHT       SUNNY     72  43  35 NW6       30.63F
WILKERSON PASS PTSUNNY   64  34  32 S3        30.65F
$$

COZ069>075-302100-
...SAN LUIS VALLEY/SANGRE DE CRISTO MOUNTAINS...

CITY           SKY/WX    TMP DP  RH WIND       PRES   REMARKS
ALAMOSA        SUNNY     82  44  26 CALM      30.31F
LA VETA PASS   PTSUNNY   68  43  40 MISG      30.54S
SAGUACHE       SUNNY     82  45  26 SE6       30.34F
$$

COZ035-036-038>040-302100-
...NORTHERN COLORADO FRONT RANGE...

CITY           SKY/WX    TMP DP  RH WIND       PRES   REMARKS
DENVER INTL AP MOSUNNY   92  43  18 VRB6      30.10F
DMNS CITY PARK   N/A     92  41  17 SW2       30.08F
AURORA         MOSUNNY   90  43  20 CALM      30.13F
FRONT RANGE AP MOSUNNY   90  45  20 MISG      30.13F
ERIE MUNI ARPT SUNNY     92  37  14 SE7       30.07F
BOULDER MUN AP SUNNY     91  43  18 S5        30.08F
CENTENNIAL     MOSUNNY   87  39  18 E6        30.15F
BROOMFIELD     PTSUNNY   91  37  15 NE3       30.13F
FORT COLLINS   SUNNY     91  50  24 SE12      30.04F
LONGMONT       SUNNY     96  41  14 CALM      30.08F
$$

COZ041-046-047-076>085-087-088-302100-
...PIKES PEAK/PALMER DIVIDE AND SOUTHERN FOOTHILLS...

CITY           SKY/WX    TMP DP  RH WIND       PRES   REMARKS
COLO. SPRINGS  MOSUNNY   85  49  28 VRB6      30.20F
A. F. ACADEMY  MOSUNNY   86  44  22 VRB5      30.20F
ELLICOTT       SUNNY    N/A N/A N/A SW7       30.19F
FALCON         SUNNY     84  46  26 E3        30.26F
FORT CARSON    SUNNY     85  50  30 VRB3      30.17F
LIMON          SUNNY     85  56  37 SW6       30.13F
MONUMENT HILL  SUNNY     81  41  24 E3        30.27F
TRINIDAD       SUNNY     90  48  23 VRB3      30.16F
$$

COZ042>045-048>051-090-091-302100-
...NORTHEAST COLORADO...

CITY           SKY/WX    TMP DP  RH WIND       PRES   REMARKS
GREELEY ARPT   SUNNY     93  48  21 SE7       30.04F
AKRON          SUNNY     90  44  20 NW6       30.06F
BURLINGTON     MOSUNNY   91  46  21 VRB5G18   30.04F
WRAY           SUNNY     98  47  17 SW3G18    29.98F
STERLING       SUNNY     93  50  22 SW12      29.99F
HOLYOKE        SUNNY     99  52  20 SW3       29.97F
FORT MORGAN    SUNNY     93  45  19 SE6       30.05F
$$

COZ086-089-092>099-302100-
...SOUTHEAST COLORADO...

CITY           SKY/WX    TMP DP  RH WIND       PRES   REMARKS
PUEBLO         SUNNY     96  48  19 E5        30.06F
LA JUNTA       SUNNY     94  45  18 VRB3      30.05F
LAMAR          SUNNY     94  49  21 S8        30.00F
SPRINGFIELD      N/A     92  43  18 SW12G23   30.08F
$$



USA.gov is the U.S. government's official web portal to all federal, state and local government web resources and services.